www.pogodaiklimat.ru

Погода и климат >> Архив погоды >> Литва >> Klaip?da


АРХИВ ПОГОДЫ в Klaip?da

Время (UTC), дата Ветер
(напр.,м/с)
 
Видим.   Явления Облачность Т
(С)
Тd
(С)
f
(%)
Тe
(С)
Тes
(С)
Комфортность P
(гПа)
Po
(гПа)
Тmin
(С)
Tmax
(С)
R
(мм)
R24
(мм)
S
(см)
03 11.08 З 3-6
{9}
20 км 10/10 600 м
[Cu Sc]
+20.6 +14.0 66 +24 +24 комфорт 1020.5 1019.6
06 11.08 З 2-3
{6}
20 км 9/3 1110 м
[Cu med, cong Ac As]
+21.8 +13.7 60 +25 +26 комфорт 1020.6 1019.7 +20.0
09 11.08 З 1-3
{3}
20 км 10/0
[Ac As]
+21.3 +13.9 63 +24 +28 комфорт 1020.3 1019.4
12 11.08 ЮЗ 2-3
{4}
20 км 10/0
[Ac As]
+21.2 +13.4 61 +24 +27 комфорт 1018.9 1018.0
15 11.08 ЮВ 2-5
{7}
20 км {ливн. осадки} 10/1 600 м
[Cu med, cong Ac As]
+19.3 +16.6 84 +22 +23 комфорт 1016.6 1015.7
18 11.08 Ю 3-6
{7}
20 км {ливн. осадки} 9/8 700 м
[Cu med, cong Ac trans]
+17.8 +15.2 85 +18 +18 по сезону 1016.0 1015.1 +23.3 0.0
21 11.08 Ю 2-5
{7}
20 км {ливн. осадки} 9/9 700 м
[Cu Sc]
+16.5 +14.8 90 +17 +17 по сезону 1014.0 1013.1
00 12.08 ЮЗ 5-11
{11}
20 км {ливн. осадки} 3/1 1170 м
[Cu med, cong Ci fib]
+18.6 +11.5 63 +19 +19 тепло 1012.2 1011.3
03 12.08 ЮЗ 5-12
{14}
14 км слабый ливневой дождь 10/10 600 м
[Cb cap]
+15.3 +13.3 88 +14 +14 прохладно 1010.2 1009.3
06 12.08 З 8-15
{19}
20 км слабый ливневой дождь 9/9 600 м
[Cb cap]
+17.5 +12.3 72 +16 +17 по сезону 1010.2 1009.3 +15.1 9
09 12.08 З 8-17
{18}
20 км {ливн. осадки} 8/8 600 м
[Cu med, cong]
+18.8 +13.3 70 +19 +19 по сезону 1011.7 1010.8
12 12.08 З 8-14
{16}
20 км слабый ливневой дождь 8/8 600 м
[Cb cap]
+18.5 +12.0 66 +18 +19 прохладно 1013.1 1012.2
15 12.08 З 7-15
{16}
20 км 6/6 600 м
[Cu med, cong]
+19.4 +11.9 62 +20 +20 по сезону 1013.1 1012.2
18 12.08 З 8-13
{15}
20 км 10/10 600 м
[Cu Sc]
+18.6 +12.5 68 +18 +18 по сезону 1012.8 1011.9 +19.9 1
21 12.08 З 6-11
{13}
20 км {ливн. осадки} 3/3 600 м
[Cu med, cong]
+18.6 +13.1 70 +19 +19 тепло 1012.0 1011.1
00 13.08 З 7-12
{13}
20 км слабый ливневой дождь 10/10 600 м
[Cb cap]
+17.8 +10.2 61 +17 +17 по сезону 1012.0 1011.1
03 13.08 З 3-7
{12}
20 км слабый ливневой дождь 10/10 600 м
[Cb cap]
+15.5 +13.9 90 +15 +15 прохладно 1011.8 1010.9
06 13.08 З 2-5
{8}
20 км в посл. час ливневой дождь 10/10 600 м
[Cu Sc]
+16.5 +13.8 84 +17 +17 по сезону 1011.8 1010.9 +15.3 0.9
09 13.08 З 2-4
{6}
20 км {ливн. осадки} 10/10 600 м
[Cu Sc]
+17.9 +13.3 74 +18 +18 по сезону 1012.1 1011.2
12 13.08 З 2-3
{4}
20 км {ливн. осадки} 10/10 500 м
[Cu Sc]
+18.5 +14.7 79 +20 +20 по сезону 1012.2 1011.3
15 13.08 З 2-3
{4}
20 км 9/9 600 м
[Cu Sc]
+19.3 +14.7 75 +21 +22 комфорт 1011.7 1010.8
18 13.08 штиль 0-1
{3}
20 км 9/6 1000 м
[Cu med, cong Ac und]
+17.9 +14.8 82 +18 +18 по сезону 1011.4 1010.5 +19.9 0.0
21 13.08 В 1-2
{2}
20 км 9/0
[Ac und]
+16.1 +14.9 93 +17 +17 по сезону 1011.2 1010.3
00 14.08 В 2-3
{4}
20 км 9/0
[Ac und]
+16.2 +15.3 94 +16 +16 по сезону 1010.9 1010.0
03 14.08 В 2-4
{5}
20 км 10/0
[Ac As]
+15.4 +14.0 91 +15 +15 прохладно 1010.2 1009.3
06 14.08 В 3-5
{6}
20 км в посл. час ливневой дождь 10/0
[Ac As]
+15.6 +14.0 90 +15 +16 прохладно 1009.5 1008.6 +15.2 0.3
09 14.08 В 2-5
{7}
20 км слабый ливневой дождь 10/6 1000 м
[Cb cap Ac cuf]
+17.2 +14.4 84 +18 +19 по сезону 1010.4 1009.5
12 14.08 СВ 1-2
{6}
20 км {ливн. осадки} 10/4 1000 м
[Sc Ac cuf]
+18.3 +16.4 89 +20 +22 по сезону 1009.2 1008.3
15 14.08 ЮВ 2-3
{5}
20 км {ливн. осадки} 10/4 300 м
[Sc Ac cuf]
+18.6 +17.3 92 +20 +21 по сезону 1008.5 1007.6
18 14.08 ЮВ 1-4
{5}
20 км {ливн. осадки} 9/6 360 м
[Cu Sc Ac und]
+18.5 +17.5 94 +20 +20 по сезону 1008.2 1007.3 +18.8 3
21 14.08 ЮЗ 3-6
{6}
20 км в посл. час ливневой дождь 9/9 330 м
[Cu Sc]
+19.6 +18.1 91 +22 +22 комфорт 1007.8 1006.9
00 15.08 ЮЗ 4-8
{8}
20 км {ливн. осадки} 8/8 660 м
[Cu med, cong]
+19.3 +17.0 87 +21 +21 комфорт 1007.8 1006.9
03 15.08 З 5-9
{10}
19 км в посл. час ливневой дождь 10/10 420 м
[Cu Sc]
+19.2 +17.4 89 +21 +21 комфорт 1007.7 1006.8
06 15.08 З 4-7
{8}
20 км {ливн. осадки} 8/8 300 м
[Cb calv]
+19.6 +17.5 88 +22 +22 комфорт 1008.6 1007.7 +18.4 0.0
09 15.08 З 4-6
{8}
20 км 10/10 400 м
[Sc]
+19.8 +16.9 83 +22 +22 комфорт 1010.2 1009.3
12 15.08 З 4-8
{8}
20 км в посл. час ливневой дождь 8/8 360 м
[Sc]
+20.1 +17.7 86 +23 +25 комфорт 1012.9 1011.2
15 15.08 СЗ 5-7
{9}
20 км 8/8 930 м
[Sc]
+20.3 +17.4 83 +23 +24 комфорт 1014.0 1013.1
18 15.08 СЗ 4-8
{8}
20 км 3/3 400 м
[Sc]
+19.0 +16.7 87 +20 +20 тепло 1015.4 1014.5 +21.0 0.0
21 15.08 СЗ 4-7
{8}
20 км 4/4 300 м
[Sc]
+18.6 +16.8 89 +19 +19 тепло 1016.8 1015.9
00 16.08 СЗ 2-5
{7}
20 км 3/3 420 м
[Cu med, cong]
+18.1 +15.8 86 +19 +19 тепло 1017.6 1016.7
03 16.08 СЗ 1-2
{4}
20 км 3/3 420 м
[Cu med, cong]
+16.2 +15.0 93 +17 +17 по сезону 1018.2 1017.3
06 16.08 З 1-1
{2}
20 км 3/3 600 м
[Cu med, cong]
+18.5 +15.0 80 +20 +23 тепло 1019.2 1018.3 +14.9
09 16.08 ЮЗ 2-3
{4}
20 км 10/3 600 м
[Cu med, cong]
+21.6 +16.4 72 +25 +29 комфорт 1020.1 1019.2
12 16.08 ЮЗ 2-4
{4}
20 км ясно +22.6 +17.3 72 +27 +38 душно 1020.2 1019.3
15 16.08 ЮЗ 2-4
{5}
20 км ясно +22.0 +17.5 76 +27 +30 душно 1019.9 1019.0
18 16.08 штиль 0-1
{4}
20 км ясно +19.6 +17.4 87 +22 +22 комфорт 1019.6 1018.7 +23.5
21 16.08 В 1-1
{1}
20 км ясно +15.6 +15.4 99 +16 +16 по сезону 1019.8 1018.9
00 17.08 В 1-2
{2}
12 км ясно +15.3 +15.1 99 +16 +16 по сезону 1019.8 1018.9
03 17.08 В 2-3
{3}
20 км ясно +14.4 +14.0 97 +14 +14 прохладно 1019.7 1018.8
06 17.08 ЮВ 3-4
{5}
20 км ясно +19.2 +15.3 78 +21 +24 комфорт 1020.0 1019.1 +14.4
09 17.08 Ю 3-6
{6}
20 км ясно +24.3 +15.6 58 +27 +36 жарко 1020.0 1019.1
12 17.08 ЮЗ 3-5
{6}
20 км 1/1 300 м
[Cu med, cong]
+25.0 +16.2 58 +28 +36 жарко 1019.2 1018.3
15 17.08 ЮЗ 2-3
{6}
20 км ясно +25.2 +17.0 60 +29 +33 душно 1017.9 1017.0
18 17.08 ЮВ 1-2
{4}
20 км ясно +22.2 +15.1 64 +26 +26 душно 1017.1 1016.2 +26.0
21 17.08 В 2-3
{3}
20 км ясно +18.0 +15.1 83 +19 +19 тепло 1017.4 1016.5

 

Местоположение метеостанции Klaip?da (Литва): широта 55.73 долгота 21.07 высота над уровнем моря 7 м.

В архиве по умолчанию представлена погода в Klaip?da за последнюю неделю. Архивные данные за месяц целиком и за предыдущие месяцы, начиная с января 2011 года, Вы можете получить, выбрав интересующий диапазон дат из раскрывающегося списка и нажав кнопку "Ввод!".


*Определитесь, кто Вы:
робот инопланетянин человек

Внимание! Время в таблицах - всемирное. Для получения местного времени необходимо прибавить поправку, которая в Klaip?da равна 2 ч.

Смотрите также архив погоды в соседних городах и на ближайших метеорологических станциях:

Погода в Nidoje (Литва) (46 км)
Погода в ?ilut? (Литва) (49 км)
Погода в Рыбачьем (Калининградская область, Россия) (65 км)
Погода в Laukuvos (Литва) (74 км)
Погода в Tel?i? (Литва) (78 км)
Погода в Liep?ja (Латвия) (83 км)
Погода в Советске (Калининградская область, Россия) (90 км)
Погода в Пионерском (Калининградская область, Россия) (102 км)
Погода в Ma?eikiai (Литва) (104 км)
Погода в Калининграде (Калининградская область, Россия) (118 км)

Пояснения к столбцам:

Ветер - указаны скорость ветра в м/с - средняя за 10 мин, порывы в срок и между сроками (в фигурных скобках) и направление, откуда дует ветер: С - северный, СВ - северо-восточный, В - восточный, ЮВ - юго-восточный, Ю - южный, ЮЗ - юго-западный, З - западный, СЗ - северо-западный.
Видимость - горизонтальная дальность видимости в метрах или километрах. При видимости от 1 до 10 км при отсутствии осадков обычно наблюдается дымка, при ухудшении видимости до 1 км и менее - туман. В сухую погоду видимость может ухудшаться дымом, пылью или мглою.
Явления - указаны атмосферные явления, наблюдавшиеся в срок или в последний час перед сроком; фигурными скобками обозначены явления, наблюдавшиеся между сроками (за 1-3 часа до срока); квадратными скобками обозначены град или гололедные отложения с указанием их диаметра в мм.
Облачность - указаны через наклонную черту общая и нижняя облачность в баллах и высота нижней границы облаков в метрах; квадратными скобками обозначены формы облаков: Ci - перистые, Cs - перисто-слоистые, Cc - перисто-кучевые, Ac - высококучевые, As - высокослоистые, Sc - слоисто-кучевые, Ns - слоисто-дождевые, Cu - кучевые, Cb - кучево-дождевые. Подробнее классификацию облаков см. в Атласе облаков (PDF).
T - Температура воздуха - температура, измеренная на высоте 2 м над землей.
Td - Температура точки росы - температура, при понижении до которой содержащийся в воздухе водяной пар достигнет насыщения.
f - Относительная влажность воздуха - влажноcть воздуха, измеренная на высоте 2 м над землей.
Te - Эффективная температура - температура, которую ощущает одетый по сезону человек в тени. Характеристика душности погоды. При расчете учитывается влияние влажности воздуха и скорости ветра на теплоощущения человека.
Tes - Эффективная температура на солнце - температура, которую ощущает человек, с поправкой на солнечный нагрев. Характеристика знойности погоды. Зависит от высоты солнца над горизонтом, облачности и скорости ветра. Ночью, в пасмурную погоду, а также при ветре 12 м/с и более поправка равна нулю.
P - Атмосферное давление - приведенное к уровню моря атмосферное давление.
Po - Атмосферное давление - измеренное на уровне метеостанции атмосферное давление.
Tmin - Минимальная температура - минимум температуры воздуха на высоте 2 м над землей.
Tmax - Максимальная температура - максимум температуры воздуха на высоте 2 м над землей.
R - Количество осадков - Количество выпавших осадков за период времени, мм. При наведении курсора мыши на число - период времени, за который выпало указанное количество осадков.
R24 - Количество осадков - Количество выпавших осадков за 24 часа, мм.
S - Снежный покров - Высота снежного покрова, см. При наведении курсора мыши на число - состояние снежного покрова и степень покрытия местности в баллах.